Temperature
11 12 12 11 11 12 11 11 11 11 11 10 10 10 11 11 11 12 12 13 13 14 14 15 15 16 16 16 17 17 17 17 17 17 17 17 17 16 16 16 16 16 16 16
11 12 12 11 11 11 11 11 11 11 10 10 10 11 11 11 11 11 12 13 13 14 14 14 15 15 15 16 16 16 17 16 16 16 16 16 16 16 16 16 16 16 16 16
10 10 11 10 10 10 10 10 10 9 9 10 10 10 11 10 10 11 12 13 13 14 14 14 14 14 15 15 15 15 16 16 15 15 15 15 15 15 16 16 16 16 16 15
9 10 10 10 11 11 11 10 10 10 10 10 10 10 12 11 11 12 13 13 14 14 14 14 14 14 14 14 14 14 14 14 14 14 14 14 14 15 15 15 15 15 15 15
8 9 10 11 11 10 10 10 10 9 9 10 10 12 12 12 12 12 13 13 14 14 14 14 14 13 13 13 13 13 13 13 13 13 13 13 13 14 14 14 14 14 14 14
8 10 10 10 11 11 10 10 10 9 9 9 9 9 10 12 13 13 14 14 14 14 14 14 14 13 13 13 13 13 12 12 12 12 12 12 12 12 13 13 13 13 13 13
8 9 9 10 11 10 10 10 10 10 10 9 9 9 11 12 13 13 14 14 14 14 14 14 14 13 13 13 13 12 12 12 12 12 12 12 12 12 12 12 12 12 12 13
7 8 9 11 10 9 10 11 11 10 10 10 11 11 12 12 13 14 14 14 14 14 14 14 14 14 13 13 13 12 12 12 12 12 12 11 11 11 11 11 12 12 12 12
7 9 10 11 11 12 11 11 11 11 11 11 11 12 12 13 13 14 14 14 15 15 15 14 14 14 13 13 13 12 12 12 12 11 11 11 11 11 11 11 11 11 11 12
8 8 10 12 12 12 11 11 11 11 11 11 11 12 12 12 13 14 14 14 15 15 15 15 14 14 14 13 13 12 12 12 11 11 11 11 11 11 11 11 11 11 11 11
8 9 10 11 12 12 11 11 11 11 11 11 11 12 12 12 13 13 14 14 15 15 15 15 15 14 14 14 13 13 12 12 11 11 11 11 11 11 11 11 10 11 11 11
8 10 10 12 12 12 12 11 11 11 11 11 11 12 12 12 13 13 14 14 15 15 15 15 15 15 14 14 13 13 12 12 11 11 11 11 11 10 10 10 10 10 10 11
14 13 13 12 12 12 12 11 11 11 11 11 11 12 12 12 13 13 13 14 14 15 15 15 15 15 15 14 14 13 12 12 11 11 11 11 11 10 10 10 10 10 10 10
13 13 12 12 12 12 11 11 11 11 11 11 11 11 12 12 12 13 13 14 14 15 15 15 15 15 15 14 14 13 13 12 11 11 11 11 11 10 10 10 10 10 10 10
13 13 13 13 12 12 11 11 11 11 11 11 11 11 12 12 12 13 13 14 14 15 15 15 15 15 15 15 14 13 13 12 12 11 11 11 10 10 10 10 9 9 9 9
13 13 13 12 12 12 11 11 11 11 11 11 11 11 11 12 12 12 13 14 14 15 15 15 15 15 15 15 14 13 13 12 12 11 11 11 10 10 10 10 9 9 9 9
13 12 12 12 12 11 11 11 11 11 11 11 11 11 11 11 12 12 13 13 14 14 15 15 15 15 15 15 14 13 13 12 12 11 11 11 10 10 10 10 9 9 9 9
14 14 14 13 12 12 11 11 11 11 11 11 11 11 11 11 11 12 12 13 14 14 15 15 15 15 15 15 14 14 13 12 12 11 11 11 11 10 10 10 9 9 9 9
14 13 13 13 12 12 11 11 11 11 11 11 11 11 11 11 11 11 12 13 13 14 15 15 15 15 15 15 14 14 13 12 12 11 11 11 11 10 10 10 10 9 9 9
14 13 13 12 12 12 11 11 11 11 11 11 11 11 11 11 11 11 12 12 13 13 14 15 15 15 15 15 14 14 13 12 12 11 11 11 11 10 10 10 10 10 9 9
14 13 13 12 12 12 11 11 11 11 11 11 10 10 10 11 11 11 11 12 13 13 14 14 15 15 15 14 14 14 13 12 12 11 11 11 11 11 10 10 10 10 9 9
14 13 13 12 12 12 11 11 11 11 11 11 10 10 10 11 11 11 11 12 12 13 14 14 15 15 15 14 14 14 13 12 12 11 11 11 11 11 10 10 10 10 10 9
14 13 13 12 12 12 12 11 11 11 11 11 10 10 10 10 11 11 11 12 12 13 14 14 14 15 15 14 14 14 13 12 12 11 11 11 11 11 11 10 10 10 10 10
14 13 13 12 12 12 12 11 11 11 11 11 10 10 10 10 11 11 11 11 12 13 13 14 14 15 15 14 14 14 13 13 12 11 11 11 11 11 11 10 10 10 10 10
14 13 13 12 12 12 12 11 11 11 11 11 11 10 10 10 10 11 11 11 12 13 13 14 14 14 14 14 14 14 13 13 12 12 11 11 11 11 10 10 10 10 10 9
14 13 13 13 13 12 12 12 11 11 11 11 11 10 10 10 10 10 11 11 12 12 13 13 14 14 14 14 14 14 13 13 12 12 11 11 11 11 10 10 10 10 10 9
14 13 13 13 12 12 12 12 12 11 11 11 11 11 10 10 10 11 11 11 11 12 12 13 13 13 14 14 14 13 13 13 12 12 11 11 11 11 10 10 10 10 10 9
Wind_Speed
3 3 5 10 13 13 11 8 5 5 6 11 16 15 15 15 15 15 16 15 13 10 8 8 7 7 7 7 7 6 4 4 2 2 2 1 1 1 1 1 2 2 2 2
1 2 4 9 14 12 10 9 8 8 6 11 13 11 13 16 17 16 16 15 12 10 9 8 8 8 8 9 8 7 6 5 4 4 2 1 1 1 1 1 1 1 2 3
2 5 3 6 9 8 6 6 6 6 7 13 13 14 12 13 15 15 14 12 11 10 8 8 8 7 8 8 8 9 8 8 7 6 4 4 3 3 2 2 2 1 2 3
1 4 3 3 2 2 2 3 5 5 8 11 11 11 6 7 12 13 13 11 10 8 8 7 7 7 7 8 8 9 9 8 8 7 6 6 5 5 4 3 2 2 3 3
3 2 1 2 1 1 1 1 3 6 9 11 12 6 5 9 12 10 9 8 7 6 5 6 7 7 7 8 8 8 8 8 8 7 7 7 7 6 4 3 3 3 2 3
3 2 3 5 3 1 2 2 3 5 7 9 9 6 7 13 14 13 11 8 6 6 5 6 6 6 6 7 7 7 7 7 7 7 7 7 7 6 5 4 4 4 4 3
3 2 5 6 3 2 3 3 5 4 6 5 3 4 9 13 11 9 9 7 6 5 4 5 5 5 5 6 6 5 5 6 7 7 7 7 7 6 6 6 5 5 5 5
3 2 5 4 3 4 5 3 3 4 5 5 7 8 9 9 10 10 9 7 6 5 5 5 4 4 5 5 5 4 4 6 7 7 7 7 7 7 7 7 7 6 6 6
7 6 5 4 5 4 4 3 4 4 6 6 6 7 8 8 9 9 8 7 6 5 6 6 4 2 3 4 3 2 4 5 5 6 7 7 7 8 7 7 6 6 5 5
4 6 5 5 4 3 4 5 6 6 7 5 6 8 8 8 8 9 8 7 6 5 6 6 5 4 4 3 0 1 2 2 3 4 5 6 6 6 6 7 6 6 5 5
4 5 3 5 6 5 4 5 5 5 4 5 6 7 6 7 8 8 7 7 6 6 6 7 6 5 4 2 2 2 1 1 2 2 3 4 5 5 5 5 5 5 4 4
8 8 7 7 7 5 4 4 3 4 5 5 4 6 6 7 7 7 8 7 7 7 7 7 6 5 4 3 4 3 1 0 0 1 1 2 3 3 5 5 8 9 8 5
6 6 7 4 5 5 4 3 2 2 4 5 6 5 6 6 6 7 8 8 8 8 8 7 6 5 4 3 4 4 3 2 0 0 0 0 1 2 3 5 7 10 12 11
6 7 5 5 5 5 4 2 1 3 4 4 5 5 6 6 7 8 9 9 9 8 8 6 6 6 4 3 4 4 3 2 1 1 0 1 1 1 2 3 4 5 7 11
8 7 7 6 6 5 3 2 1 4 5 6 5 6 7 7 8 9 9 9 8 8 7 6 6 6 3 3 4 4 3 2 1 1 1 2 2 2 2 3 3 3 4 6
9 6 7 7 7 6 4 2 1 4 5 5 6 7 8 7 8 8 9 8 8 9 9 7 7 6 2 3 4 3 3 4 4 2 2 2 2 3 3 3 3 4 5 4
11 9 8 8 7 6 5 5 4 4 5 6 7 8 7 7 8 9 9 9 8 8 7 6 7 6 2 3 4 4 3 3 5 4 3 2 3 3 3 3 3 3 3 5
13 13 11 10 8 7 6 5 4 5 5 5 7 6 7 7 8 9 10 10 9 8 6 6 7 5 2 3 4 4 4 4 3 3 3 3 3 3 3 3 3 3 3 4
10 10 10 10 9 7 6 5 5 4 5 5 5 6 6 7 7 8 8 8 8 9 9 9 11 5 2 3 4 4 5 4 4 3 3 4 4 3 3 3 3 2 2 3
10 10 11 10 8 7 6 5 4 4 4 3 3 5 6 7 8 8 7 7 6 6 9 10 8 4 2 3 5 4 5 5 5 4 4 4 4 3 3 3 3 3 2 2
11 11 11 10 8 7 6 5 4 4 3 2 3 5 6 7 7 6 6 7 7 8 9 10 6 3 2 3 5 4 5 5 5 4 4 4 4 4 3 3 3 3 2 2
11 11 11 9 8 6 5 5 5 4 4 4 4 4 5 7 7 7 6 6 8 12 9 6 5 4 3 3 4 5 5 5 4 4 4 4 4 4 4 4 4 3 3 3
10 10 10 9 8 6 4 4 5 4 4 4 5 5 5 6 5 5 7 7 7 12 9 6 7 7 4 4 4 5 5 5 5 5 5 5 5 5 4 5 4 4 4 4
10 10 9 8 7 6 5 6 5 4 4 5 5 5 5 5 5 5 6 10 13 13 7 9 10 7 3 4 4 5 5 5 5 4 4 4 4 4 4 4 4 4 4 5
10 9 8 8 8 7 7 5 4 4 4 4 6 6 4 4 5 6 7 8 11 11 7 9 10 4 2 4 4 5 5 5 5 5 5 4 4 5 4 5 5 5 5 5
9 9 9 9 8 7 6 5 4 4 4 4 4 5 4 4 5 6 5 7 9 9 7 5 5 2 2 3 4 5 5 5 5 5 5 5 5 5 5 5 6 5 5 5
6 6 6 5 5 6 6 5 6 5 5 5 5 5 4 4 5 5 6 6 6 6 6 5 4 3 2 3 4 4 5 5 5 5 5 5 5 5 5 6 5 5 5 5
Wind_Direction
94 57 41 35 25 31 41 32 41 26 11 354 344 342 347 354 360 9 16 21 21 23 20 19 19 15 12 14 9 18 42 56 49 56 72 79 104 173 202 205 206 205 200 202
16 354 24 35 23 25 30 23 23 20 5 339 333 343 358 2 4 7 10 12 13 18 20 18 17 13 13 19 17 26 39 37 28 34 32 358 310 282 287 289 281 209 220 225
323 316 14 19 5 17 37 33 18 6 328 330 342 346 350 356 0 359 358 358 2 7 8 9 10 11 14 17 22 32 33 28 22 19 18 3 2 7 350 329 326 302 262 242
52 40 42 274 272 355 27 50 19 346 332 336 330 314 310 358 358 349 345 345 345 347 354 357 3 9 13 21 26 30 28 25 20 19 15 6 10 7 2 360 347 323 298 275
94 86 285 288 307 357 315 312 350 337 335 339 336 333 347 354 351 336 327 324 322 328 336 348 360 1 16 21 20 23 19 15 12 14 16 14 11 0 356 354 347 333 317 307
108 136 226 243 266 276 164 280 298 327 326 335 357 21 329 330 332 329 331 328 327 331 341 349 348 357 17 14 14 9 0 3 9 14 18 14 5 358 354 354 350 349 351 351
127 203 257 247 275 104 152 259 291 297 299 315 326 259 280 306 315 318 321 321 327 332 329 325 334 354 5 2 356 343 352 12 17 14 17 17 11 10 7 9 13 17 17 12
150 200 258 228 133 165 214 237 260 274 281 289 287 286 296 307 319 328 332 329 329 324 314 314 328 348 345 338 329 353 21 28 23 18 19 20 19 18 18 20 26 23 21 17
190 213 239 212 203 215 194 232 263 266 285 296 298 303 312 315 323 327 329 327 325 319 311 312 312 302 307 311 329 28 40 35 28 27 27 25 27 23 21 22 24 21 20 16
232 254 237 223 227 240 220 232 261 274 287 294 296 303 311 315 323 329 330 328 326 323 315 306 300 285 266 282 249 100 61 39 33 35 34 32 32 28 28 23 20 18 17 12
234 254 232 240 226 230 247 258 279 297 291 293 302 309 310 314 318 322 323 321 322 312 298 292 294 286 275 239 171 156 121 34 37 40 44 38 36 31 24 23 19 17 9 6
212 206 183 216 218 212 230 263 291 310 319 322 313 306 311 311 310 314 317 319 322 318 304 295 291 284 276 220 178 172 194 266 355 26 43 45 30 21 25 27 27 35 36 31
190 173 172 191 187 192 208 244 284 304 308 312 315 310 314 309 307 315 318 322 322 316 305 296 291 285 274 212 182 180 194 209 206 92 66 63 27 24 14 7 21 31 30 33
159 131 146 177 184 188 190 211 298 329 322 314 311 318 322 317 315 322 322 318 314 313 311 302 294 289 275 202 181 181 177 180 164 159 109 94 85 57 39 34 20 4 10 27
178 169 167 169 166 168 168 170 358 330 325 327 323 326 328 327 320 316 314 316 320 325 327 324 311 302 289 186 174 172 161 156 138 122 106 98 96 87 67 56 45 20 12 16
171 156 148 154 172 179 179 193 250 293 306 310 315 319 318 313 309 310 316 325 331 326 323 320 311 305 280 180 163 159 165 169 149 127 107 101 98 96 83 67 52 41 30 12
152 167 175 181 190 195 203 214 230 261 285 296 303 309 316 324 327 327 326 326 319 307 307 311 309 308 264 179 163 159 152 147 136 118 113 118 118 113 107 95 77 57 33 26
181 182 177 177 180 194 214 230 242 259 269 283 303 316 326 329 322 317 318 322 326 327 326 324 320 317 264 177 161 153 148 142 133 132 127 123 122 120 116 109 98 79 47 42
180 172 172 176 179 183 200 223 242 258 278 291 307 312 310 309 309 311 318 327 334 334 328 327 328 328 272 192 157 149 149 144 133 128 128 129 121 120 122 122 116 102 86 71
176 172 172 179 182 185 201 218 235 259 275 286 303 314 318 316 316 317 320 315 298 288 301 312 316 306 264 195 160 152 154 152 147 141 136 138 140 142 142 142 140 131 117 104
175 172 173 178 187 198 206 207 213 245 273 287 283 290 297 302 309 315 319 315 306 311 315 317 316 294 247 194 163 154 157 156 155 156 156 156 156 158 160 162 160 156 147 133
176 174 176 177 182 198 208 202 207 229 260 279 283 290 301 308 314 314 296 275 291 315 321 308 302 286 264 191 165 163 164 163 161 160 163 166 169 173 178 178 176 170 160 154
176 176 175 178 185 195 199 207 213 220 241 259 274 285 287 285 287 292 304 301 305 314 317 298 298 294 253 176 169 169 169 170 171 173 176 178 180 182 184 184 180 172 165 163
175 177 179 175 163 170 204 225 222 226 241 259 263 265 267 285 295 275 269 300 313 316 311 306 307 294 210 171 172 173 176 178 178 178 176 175 177 180 182 179 175 171 167 164
178 174 167 163 176 198 213 214 218 237 251 268 278 277 262 239 253 284 298 304 315 322 317 319 322 301 180 174 179 181 183 186 183 177 176 175 179 181 180 176 173 169 168 166
182 184 187 191 195 197 192 188 203 223 229 259 278 279 282 279 275 283 294 306 316 323 324 320 319 298 204 191 190 188 187 188 186 182 183 183 183 179 178 178 174 171 169 164
192 189 186 197 206 196 187 190 204 220 217 219 244 263 275 289 297 304 311 314 319 322 321 320 314 290 240 209 199 192 187 185 184 184 184 184 182 184 183 179 172 166 161 159
Height
1553 1550 1549 1548 1545 1541 1540 1541 1542 1542 1540 1539 1534 1529 1523 1518 1512 1506 1502 1499 1497 1495 1495 1494 1493 1492 1492 1491 1490 1489 1488 1488 1489 1489 1490 1491 1492 1493 1494 1495 1496 1498 1498 1499
1554 1551 1550 1551 1549 1546 1546 1546 1545 1543 1543 1540 1535 1530 1525 1520 1515 1511 1507 1505 1503 1501 1499 1498 1496 1495 1494 1492 1491 1490 1489 1488 1488 1488 1489 1489 1490 1490 1491 1492 1494 1494 1495 1497
1559 1555 1552 1558 1556 1554 1553 1553 1551 1551 1550 1542 1536 1532 1529 1525 1521 1517 1514 1511 1508 1506 1504 1501 1500 1498 1496 1494 1493 1491 1490 1488 1488 1488 1488 1488 1488 1488 1489 1490 1490 1491 1492 1494
1562 1559 1564 1562 1554 1554 1553 1554 1552 1550 1547 1543 1539 1534 1532 1529 1525 1521 1518 1515 1513 1510 1508 1506 1504 1501 1499 1497 1495 1493 1491 1490 1489 1488 1487 1487 1486 1486 1487 1487 1487 1488 1489 1490
1565 1565 1562 1557 1554 1554 1554 1553 1552 1550 1546 1542 1538 1534 1532 1530 1527 1524 1521 1519 1517 1515 1512 1510 1507 1505 1503 1500 1498 1496 1494 1492 1490 1489 1488 1486 1485 1485 1485 1485 1485 1485 1486 1487
1565 1563 1564 1558 1552 1552 1555 1554 1551 1549 1546 1543 1540 1539 1537 1531 1528 1525 1523 1521 1519 1517 1515 1513 1511 1508 1506 1504 1501 1499 1497 1495 1493 1491 1489 1487 1486 1485 1484 1483 1483 1483 1484 1484
1565 1565 1561 1553 1551 1552 1559 1556 1550 1548 1546 1544 1543 1542 1538 1533 1530 1527 1524 1522 1521 1519 1517 1515 1513 1511 1509 1506 1504 1502 1500 1497 1495 1492 1490 1488 1487 1485 1484 1483 1482 1482 1482 1482
1567 1565 1561 1549 1550 1552 1552 1549 1548 1547 1546 1544 1542 1539 1536 1533 1530 1527 1525 1523 1521 1520 1519 1517 1515 1513 1511 1509 1507 1504 1502 1500 1497 1494 1492 1490 1488 1486 1484 1483 1482 1481 1481 1481
1558 1556 1548 1547 1547 1548 1548 1547 1547 1546 1544 1543 1540 1538 1536 1533 1530 1527 1525 1523 1522 1520 1519 1518 1516 1514 1512 1511 1509 1506 1504 1502 1499 1497 1494 1492 1490 1488 1486 1484 1483 1482 1482 1481
1550 1547 1545 1545 1546 1547 1547 1546 1546 1545 1543 1542 1540 1537 1535 1532 1530 1527 1525 1523 1522 1520 1519 1518 1516 1515 1513 1512 1510 1508 1506 1504 1501 1499 1497 1494 1492 1490 1488 1486 1485 1484 1483 1482
1546 1543 1543 1543 1544 1545 1545 1545 1545 1544 1543 1541 1539 1537 1535 1532 1529 1527 1525 1523 1521 1519 1518 1517 1516 1515 1513 1512 1510 1508 1507 1505 1503 1501 1499 1497 1495 1493 1491 1489 1487 1486 1485 1484
1541 1537 1538 1539 1541 1543 1544 1544 1543 1543 1541 1540 1539 1536 1534 1532 1530 1527 1524 1522 1520 1519 1517 1516 1515 1514 1513 1511 1510 1509 1507 1506 1504 1502 1501 1499 1497 1495 1493 1492 1490 1488 1487 1486
1531 1533 1536 1538 1540 1541 1542 1542 1542 1541 1540 1539 1537 1536 1533 1531 1529 1526 1524 1521 1519 1517 1516 1515 1514 1513 1512 1511 1510 1508 1507 1506 1505 1503 1502 1500 1499 1497 1495 1494 1493 1491 1490 1489
1530 1532 1534 1536 1538 1540 1541 1541 1541 1540 1539 1538 1536 1535 1532 1530 1528 1525 1523 1520 1518 1516 1515 1514 1513 1512 1511 1510 1509 1508 1507 1506 1505 1504 1502 1501 1500 1499 1497 1496 1495 1494 1493 1492
1527 1530 1532 1534 1536 1538 1539 1539 1539 1538 1537 1536 1535 1533 1531 1529 1526 1524 1522 1519 1517 1515 1514 1512 1511 1511 1510 1509 1508 1507 1506 1506 1505 1504 1503 1502 1501 1500 1499 1498 1497 1497 1496 1495
1525 1528 1531 1532 1534 1536 1537 1537 1537 1537 1536 1535 1533 1532 1530 1528 1525 1523 1521 1518 1516 1514 1512 1511 1510 1509 1509 1508 1507 1506 1506 1505 1505 1504 1504 1503 1502 1502 1501 1500 1499 1499 1498 1498
1521 1525 1528 1530 1532 1534 1535 1535 1535 1535 1534 1533 1532 1530 1528 1526 1524 1521 1519 1517 1515 1513 1511 1510 1509 1508 1508 1507 1506 1506 1505 1505 1505 1505 1504 1504 1503 1503 1502 1502 1501 1501 1501 1501
1518 1521 1524 1527 1529 1531 1533 1533 1533 1533 1533 1532 1530 1529 1527 1524 1522 1520 1517 1515 1513 1512 1510 1508 1508 1507 1506 1506 1505 1505 1505 1505 1505 1505 1505 1505 1504 1504 1504 1504 1503 1503 1503 1503
1515 1519 1523 1525 1528 1529 1530 1531 1531 1531 1531 1530 1528 1527 1525 1523 1521 1518 1516 1513 1511 1509 1508 1507 1506 1506 1505 1505 1505 1504 1504 1505 1505 1505 1505 1505 1505 1505 1505 1505 1505 1505 1505 1505
1513 1517 1520 1523 1525 1527 1528 1529 1529 1529 1528 1527 1526 1525 1523 1521 1519 1517 1514 1512 1510 1507 1506 1505 1505 1504 1504 1504 1504 1504 1504 1504 1505 1505 1505 1506 1506 1506 1507 1507 1507 1507 1507 1507
1510 1514 1517 1520 1523 1524 1526 1526 1527 1527 1526 1525 1524 1523 1521 1519 1517 1515 1512 1509 1508 1506 1504 1504 1503 1503 1503 1503 1503 1503 1503 1504 1504 1505 1505 1506 1506 1507 1507 1508 1508 1508 1508 1508
1507 1511 1514 1517 1520 1522 1523 1524 1524 1524 1524 1523 1522 1520 1519 1517 1515 1513 1511 1508 1506 1504 1502 1502 1501 1501 1501 1501 1502 1502 1503 1503 1504 1504 1505 1505 1506 1507 1507 1508 1508 1508 1509 1509
1505 1508 1512 1515 1517 1519 1521 1521 1522 1521 1521 1520 1519 1518 1517 1515 1512 1510 1507 1506 1504 1502 1500 1499 1499 1499 1500 1500 1500 1501 1501 1502 1503 1503 1504 1505 1506 1506 1507 1507 1508 1508 1508 1508
1502 1506 1509 1512 1515 1516 1517 1518 1519 1519 1518 1518 1517 1516 1514 1512 1510 1509 1506 1504 1502 1500 1498 1497 1497 1497 1498 1498 1499 1499 1500 1500 1501 1502 1503 1504 1504 1505 1506 1507 1507 1507 1508 1508
1500 1503 1506 1509 1511 1513 1514 1515 1516 1516 1516 1515 1514 1513 1512 1510 1508 1506 1504 1502 1499 1498 1496 1495 1495 1495 1496 1496 1497 1498 1498 1499 1499 1500 1501 1502 1503 1504 1504 1505 1506 1506 1506 1507
1497 1499 1502 1505 1507 1510 1511 1512 1512 1512 1512 1512 1512 1511 1509 1508 1506 1504 1502 1500 1498 1496 1494 1493 1493 1493 1493 1494 1495 1496 1497 1497 1498 1498 1499 1500 1501 1502 1503 1503 1504 1504 1505 1505
1493 1496 1499 1501 1503 1505 1507 1508 1508 1509 1509 1508 1508 1508 1506 1505 1503 1502 1500 1498 1496 1494 1492 1491 1490 1490 1491 1491 1492 1493 1494 1495 1496 1496 1497 1498 1499 1499 1500 1501 1502 1502 1503 1503